K0QJ Weather Reports


time (UTC)temp
F
wind
direction
speed
knots
gust
knots
rain 1hr
in
rain 24hr
in
rain mn
in
humidity
%
barometer
mb
20260510214304 67 344 0.0 0.9 0.00 0.00 0.00 33 1020.0
20260510213801 67 354 0.9 0.9 0.00 0.00 0.00 34 1020.1
20260510213258 68 8 0.9 0.9 0.00 0.00 0.00 35 1019.8
20260510212754 67 44 0.9 1.7 0.00 0.00 0.00 34 1019.8
20260510212252 68 356 2.6 4.3 0.00 0.00 0.00 31 1020.1
20260510211748 67 20 1.7 2.6 0.00 0.00 0.00 33 1020.0
20260510211243 67 48 0.9 1.7 0.00 0.00 0.00 31 1019.9
20260510210740 67 5 0.9 0.9 0.00 0.00 0.00 31 1019.7
20260510210234 67 345 2.6 2.6 0.00 0.00 0.00 34 1020.0
20260510205729 67 213 0.9 1.7 0.00 0.00 0.00 34 1020.1
20260510205224 68 349 1.7 1.7 0.00 0.00 0.00 35 1020.1
20260510204721 67 329 2.6 2.6 0.00 0.00 0.00 32 1020.0
20260510204218 66 52 1.7 1.7 0.00 0.00 0.00 34 1020.2
20260510203714 66 224 0.9 1.7 0.00 0.00 0.00 35 1020.1
20260510203211 66 341 0.9 1.7 0.00 0.00 0.00 36 1020.5
20260510202706 68 354 0.9 1.7 0.00 0.00 0.00 35 1020.5
20260510202201 67 311 0.9 0.9 0.00 0.00 0.00 36 1020.4
20260510201659 67 342 0.9 1.7 0.00 0.00 0.00 37 1020.6
20260510201155 66 321 4.3 5.2 0.00 0.00 0.00 34 1020.6
20260510200652 66 17 1.7 2.6 0.00 0.00 0.00 33 1020.2
20260510200150 66 21 0.0 0.9 0.00 0.00 0.00 35 1020.6
20260510195647 65 357 1.7 1.7 0.00 0.00 0.00 34 1020.5
20260510195143 66 8 1.7 2.6 0.00 0.00 0.00 34 1020.5
20260510194643 66 8 1.7 1.7 0.00 0.00 0.00 33 1020.7
20260510194139 65 344 1.7 2.6 0.00 0.00 0.00 34 1020.7
20260510193634 65 355 1.7 1.7 0.00 0.00 0.00 33 1020.9
20260510193130 65 357 1.7 2.6 0.00 0.00 0.00 35 1021.0
20260510192625 65 355 1.7 2.6 0.00 0.00 0.00 33 1020.8
20260510192121 66 5 2.6 4.3 0.00 0.00 0.00 35 1020.9
20260510191618 67 325 1.7 1.7 0.00 0.00 0.00 36 1020.9
20260510191114 67 341 1.7 1.7 0.00 0.00 0.00 34 1020.8
20260510190612 66 307 2.6 2.6 0.00 0.00 0.00 34 1020.8
20260510190109 66 358 1.7 1.7 0.00 0.00 0.00 35 1020.7
20260510185605 66 324 0.9 0.9 0.00 0.00 0.00 33 1020.8
20260510185103 67 342 0.9 0.9 0.00 0.00 0.00 37 1020.5
20260510184600 65 7 1.7 2.6 0.00 0.00 0.00 35 1020.8
20260510184056 66 24 1.7 1.7 0.00 0.00 0.00 35 1020.6
20260510183551 66 353 0.9 0.9 0.00 0.00 0.00 36 1020.7
20260510183046 65 14 2.6 2.6 0.00 0.00 0.00 33 1020.7
20260510182544 65 344 0.9 1.7 0.00 0.00 0.00 35 1020.6
20260510182039 65 15 0.9 0.9 0.00 0.00 0.00 36 1020.7
20260510181537 65 3 1.7 1.7 0.00 0.00 0.00 36 1020.6
20260510181032 65 317 1.7 1.7 0.00 0.00 0.00 34 1020.7
20260510180524 64 357 0.9 0.9 0.00 0.00 0.00 36 1021.0
20260510180022 64 356 2.6 2.6 0.00 0.00 0.00 35 1021.2
20260510175516 65 328 4.3 5.2 0.00 0.00 0.00 34 1020.9
20260510175012 65 8 0.9 0.9 0.00 0.00 0.00 36 1021.0
20260510174510 65 337 2.6 4.3 0.00 0.00 0.00 34 1021.0
20260510174007 65 325 2.6 2.6 0.00 0.00 0.00 35 1020.7
20260510173457 65 359 0.9 1.7 0.00 0.00 0.00 35 1020.8
20260510172954 66 4 0.9 0.9 0.00 0.00 0.00 33 1020.7
20260510172450 67 297 2.6 2.6 0.00 0.00 0.00 33 1020.7
20260510171946 67 347 0.9 1.7 0.00 0.00 0.00 34 1020.8
20260510171443 67 332 2.6 5.2 0.00 0.00 0.00 32 1020.8
20260510170940 66 42 0.9 1.7 0.00 0.00 0.00 34 1020.9
20260510170436 65 326 4.3 6.1 0.00 0.00 0.00 33 1021.0
20260510165932 66 20 0.9 0.9 0.00 0.00 0.00 33 1020.6
20260510165428 66 345 0.9 1.7 0.00 0.00 0.00 34 1020.6
20260510164925 65 3 0.9 0.9 0.00 0.00 0.00 35 1020.6
20260510164422 65 3 2.6 2.6 0.00 0.00 0.00 34 1020.6
20260510163917 63 8 0.0 0.9 0.00 0.00 0.00 35 1020.5
20260510163413 63 9 0.0 0.0 0.00 0.00 0.00 36 1020.4
20260510162908 63 354 1.7 1.7 0.00 0.00 0.00 37 1020.6
20260510162405 64 45 1.7 2.6 0.00 0.00 0.00 35 1020.3
20260510161900 64 352 0.9 1.7 0.00 0.00 0.00 38 1020.6
20260510161356 63 329 0.9 1.7 0.00 0.00 0.00 37 1020.4
20260510160853 62 15 0.0 0.9 0.00 0.00 0.00 38 1020.9
20260510160350 62 32 0.9 1.7 0.00 0.00 0.00 38 1020.7
20260510155844 62 351 1.7 1.7 0.00 0.00 0.00 39 1020.9
20260510155341 62 48 3.5 4.3 0.00 0.00 0.00 37 1020.8
20260510154837 61 26 1.7 1.7 0.00 0.00 0.00 39 1020.8
20260510154333 62 2 0.9 0.9 0.00 0.00 0.00 38 1020.9
20260510153828 62 4 0.9 1.7 0.00 0.00 0.00 38 1020.5
20260510153324 62 357 1.7 1.7 0.00 0.00 0.00 38 1020.8
20260510152821 61 10 0.9 0.9 0.00 0.00 0.00 41 1020.4
20260510152318 61 44 2.6 2.6 0.00 0.00 0.00 38 1020.3
20260510151815 62 350 2.6 2.6 0.00 0.00 0.00 38 1020.4
20260510151313 61 42 1.7 2.6 0.00 0.00 0.00 40 1020.3
20260510150808 62 42 2.6 2.6 0.00 0.00 0.00 38 1020.0
20260510150304 60 19 0.0 0.0 0.00 0.00 0.00 40 1020.1
20260510145800 60 34 0.9 0.9 0.00 0.00 0.00 41 1020.4
20260510145257 60 37 0.9 0.9 0.00 0.00 0.00 41 1020.3
20260510144753 60 15 1.7 2.6 0.00 0.00 0.00 42 1020.4
20260510144249 60 323 2.6 2.6 0.00 0.00 0.00 41 1020.3
20260510143744 59 28 0.9 1.7 0.00 0.00 0.00 43 1020.2
20260510143240 58 3 0.9 0.9 0.00 0.00 0.00 42 1020.4
20260510142737 58 348 1.7 1.7 0.00 0.00 0.00 41 1020.6
20260510142234 58 11 0.9 0.9 0.00 0.00 0.00 44 1020.6
20260510141731 58 16 0.9 0.9 0.00 0.00 0.00 42 1020.6
20260510141229 58 2 0.9 0.9 0.00 0.00 0.00 44 1020.5
20260510140725 57 356 0.9 0.9 0.00 0.00 0.00 44 1020.8
20260510140220 58 326 0.9 1.7 0.00 0.00 0.00 44 1020.0
20260510135715 57 22 0.0 0.9 0.00 0.00 0.00 45 1020.4
20260510135211 57 6 0.0 0.0 0.00 0.00 0.00 44 1020.4
20260510134708 57 8 0.9 0.9 0.00 0.00 0.00 44 1020.2
20260510134206 56 348 0.0 0.9 0.00 0.00 0.00 44 1020.3
20260510133701 56 22 0.9 0.9 0.00 0.00 0.00 45 1020.1
20260510133157 56 20 0.0 0.9 0.00 0.00 0.00 44 1020.0
20260510132653 56 359 0.9 1.7 0.00 0.00 0.00 44 1020.1
20260510132150 56 356 0.9 0.9 0.00 0.00 0.00 43 1019.6
20260510131648 56 3 0.9 0.9 0.00 0.00 0.00 43 1019.9
20260510131145 56 352 0.9 0.9 0.00 0.00 0.00 42 1019.9
20260510130641 56 344 2.6 2.6 0.00 0.00 0.00 42 1019.8
20260510130139 56 0 0.9 1.7 0.00 0.00 0.00 43 1019.6
20260510125635 56 18 0.9 0.9 0.00 0.00 0.00 44 1019.7
20260510125131 56 28 0.9 1.7 0.00 0.00 0.00 43 1019.7
20260510124628 56 7 0.9 1.7 0.00 0.00 0.00 43 1019.6
20260510124125 56 358 0.9 0.9 0.00 0.00 0.00 43 1019.3
20260510123620 56 24 0.0 0.9 0.00 0.00 0.00 44 1019.3
20260510123117 56 359 0.0 0.0 0.00 0.00 0.00 43 1019.1
20260510122613 56 357 0.9 0.9 0.00 0.00 0.00 43 1018.9
20260510122108 56 346 0.9 0.9 0.00 0.00 0.00 43 1018.7
20260510121606 56 322 2.6 2.6 0.00 0.00 0.00 43 1018.6
20260510121103 56 349 1.7 1.7 0.00 0.00 0.00 43 1018.3
20260510120601 56 50 0.9 2.6 0.00 0.00 0.00 43 1018.2
20260510120056 56 14 1.7 1.7 0.00 0.00 0.00 44 1018.2
20260510115553 56 11 0.9 1.7 0.00 0.00 0.00 44 1018.0
20260510115051 56 342 0.9 0.9 0.00 0.00 0.00 44 1018.0
20260510114546 56 7 0.9 0.9 0.00 0.00 0.00 43 1018.0
20260510114042 56 14 0.9 0.9 0.00 0.00 0.00 44 1017.8
20260510113537 57 13 1.7 1.7 0.00 0.00 0.00 43 1017.8
20260510113036 57 334 0.9 0.9 0.00 0.00 0.00 43 1017.4
20260510112532 57 17 0.9 0.9 0.00 0.00 0.00 42 1017.6
20260510112028 57 11 0.9 0.9 0.00 0.00 0.00 42 1017.6
20260510111525 57 340 0.9 0.9 0.00 0.00 0.00 41 1017.4
20260510111021 57 36 3.5 4.3 0.00 0.00 0.00 41 1017.5
20260510110517 57 24 3.5 5.2 0.00 0.00 0.00 42 1017.4
20260510110014 57 359 0.9 0.9 0.00 0.00 0.00 44 1017.4
20260510105509 57 27 1.7 1.7 0.00 0.00 0.00 43 1017.6
20260510105004 57 343 1.7 1.7 0.00 0.00 0.00 45 1017.4
20260510104501 58 1 0.9 0.9 0.00 0.00 0.00 45 1017.0
20260510103957 58 11 0.9 0.9 0.00 0.00 0.00 46 1017.1
20260510103455 58 4 0.9 1.7 0.00 0.00 0.00 46 1017.2
20260510102950 58 44 1.7 2.6 0.00 0.00 0.00 47 1017.0
20260510102446 58 58 0.9 1.7 0.00 0.00 0.00 47 1016.9
20260510101943 58 339 2.6 2.6 0.00 0.00 0.00 45 1016.9
20260510101441 59 4 0.0 0.0 0.00 0.00 0.00 42 1016.7
20260510100939 59 16 1.7 1.7 0.00 0.00 0.00 41 1016.7
20260510100435 59 12 2.6 6.1 0.00 0.00 0.00 41 1016.5
20260510095931 59 23 3.5 4.3 0.00 0.00 0.00 40 1016.2
20260510095427 59 11 1.7 1.7 0.00 0.00 0.00 40 1016.3
20260510094926 59 9 0.9 0.9 0.00 0.00 0.00 41 1016.1
20260510094421 59 6 0.9 0.9 0.00 0.00 0.00 42 1016.2
20260510093917 59 8 0.0 0.9 0.00 0.00 0.00 42 1016.3
20260510093413 60 320 1.7 1.7 0.00 0.00 0.00 43 1016.2
20260510092909 60 12 0.0 0.9 0.00 0.00 0.00 43 1016.1
20260510092406 60 23 0.9 1.7 0.00 0.00 0.00 45 1016.2
20260510091901 60 13 0.0 0.9 0.00 0.00 0.00 46 1015.9
20260510091358 60 17 0.0 1.7 0.00 0.00 0.00 46 1015.7
20260510090855 60 19 1.7 1.7 0.00 0.00 0.00 46 1016.0
20260510090352 60 353 1.7 2.6 0.00 0.00 0.00 45 1015.7
20260510085847 60 21 1.7 1.7 0.00 0.00 0.00 46 1015.4
20260510085342 61 28 1.7 1.7 0.00 0.00 0.00 46 1015.7
20260510084838 61 12 1.7 1.7 0.00 0.00 0.00 47 1015.5
20260510084336 61 3 1.7 1.7 0.00 0.00 0.00 47 1015.6
20260510083832 61 8 0.0 0.9 0.00 0.00 0.00 47 1015.4
20260510083329 61 31 0.9 0.9 0.00 0.00 0.00 49 1015.4
20260510082824 62 7 0.0 0.0 0.00 0.00 0.00 51 1015.3
20260510082322 62 20 0.9 1.7 0.00 0.00 0.00 50 1015.3
20260510081820 62 2 0.9 0.9 0.00 0.00 0.00 49 1015.0
20260510081317 62 3 0.9 0.9 0.00 0.00 0.00 51 1015.0
20260510080813 62 355 3.5 6.1 0.00 0.00 0.00 51 1014.8
20260510080308 62 12 0.9 1.7 0.00 0.00 0.00 53 1015.0
20260510075805 63 21 0.9 1.7 0.00 0.00 0.00 53 1014.6
20260510075306 63 48 1.7 1.7 0.00 0.00 0.00 55 1014.9
20260510074759 63 1 0.9 0.9 0.00 0.00 0.00 55 1014.9
20260510074256 63 10 0.9 1.7 0.00 0.00 0.00 56 1014.8
20260510073752 63 326 1.7 1.7 0.00 0.00 0.00 56 1014.7
20260510073248 63 1 0.9 0.9 0.00 0.00 0.00 55 1014.5
20260510072744 63 21 0.0 0.9 0.00 0.00 0.00 54 1014.5
20260510072241 63 8 0.9 0.9 0.00 0.00 0.00 54 1014.4
20260510071737 63 354 0.9 0.9 0.00 0.00 0.00 54 1014.3
20260510071234 63 5 0.0 0.0 0.00 0.00 0.00 54 1014.1
20260510070732 63 3 0.0 0.0 0.00 0.00 0.00 54 1014.3
20260510070229 64 358 0.0 0.9 0.00 0.00 0.00 54 1014.2
20260510065724 63 4 0.0 0.9 0.00 0.00 0.00 54 1014.3
20260510065220 63 10 0.0 0.9 0.00 0.00 0.00 55 1014.2
20260510064717 63 5 0.9 0.9 0.00 0.00 0.00 57 1014.0
20260510064215 63 9 0.0 0.0 0.00 0.00 0.00 57 1013.9
20260510063711 63 6 0.0 0.0 0.00 0.00 0.00 56 1013.9
20260510063207 64 4 0.0 0.9 0.00 0.00 0.00 56 1014.1
20260510062704 64 0 0.9 0.9 0.00 0.00 0.00 56 1013.9
20260510062200 64 0 0.0 0.0 0.00 0.00 0.00 55 1013.6
20260510061655 65 6 0.0 0.0 0.00 0.00 0.00 54 1013.7
20260510061153 65 65 0.9 1.7 0.00 0.00 0.00 54 1013.6
20260510060649 66 3 0.0 0.9 0.00 0.00 0.00 53 1013.8
20260510060146 66 12 0.9 0.9 0.00 0.00 0.00 52 1013.8
20260510055642 66 25 0.0 0.9 0.00 0.00 0.00 52 1013.5
20260510055140 66 9 0.0 0.0 0.00 0.00 0.00 51 1013.8
20260510054635 66 11 0.0 0.0 0.00 0.00 0.00 51 1013.6
20260510054132 66 5 0.0 0.0 0.00 0.00 0.00 51 1013.8
20260510053630 66 321 0.0 0.9 0.00 0.00 0.00 50 1013.6
20260510053127 67 353 0.9 1.7 0.00 0.00 0.00 50 1013.4
20260510052624 67 7 0.0 0.0 0.00 0.00 0.00 50 1013.4
20260510052120 67 284 0.9 0.9 0.00 0.00 0.00 50 1013.5
20260510051615 67 32 0.9 0.9 0.00 0.00 0.00 48 1013.0
20260510051113 67 5 0.0 0.0 0.00 0.00 0.00 48 1013.1
20260510050610 68 31 1.7 1.7 0.00 0.00 0.00 48 1012.5
20260510050107 68 27 0.9 0.9 0.00 0.00 0.00 48 1012.5
20260510045604 68 358 0.9 1.7 0.00 0.01 0.01 48 1012.5
20260510045059 68 7 0.9 0.9 0.00 0.01 0.01 48 1012.5
20260510044556 68 7 2.6 5.2 0.00 0.01 0.01 48 1012.1
20260510044054 68 8 0.9 0.9 0.00 0.01 0.01 48 1011.8
20260510043549 68 24 1.7 1.7 0.00 0.01 0.01 48 1011.9
20260510043045 68 30 1.7 1.7 0.00 0.01 0.01 48 1011.8
20260510042539 69 3 0.9 0.9 0.00 0.01 0.01 49 1011.8
20260510042034 69 359 0.9 1.7 0.00 0.01 0.01 49 1011.5
20260510041531 69 36 2.6 2.6 0.00 0.01 0.01 49 1011.4
20260510041028 69 23 1.7 1.7 0.00 0.01 0.01 52 1011.5
20260510040520 69 8 0.0 0.9 0.00 0.01 0.01 51 1011.5
20260510040015 69 2 0.0 0.9 0.00 0.01 0.01 51 1011.3
20260510035513 69 15 0.0 0.0 0.00 0.01 0.01 52 1011.3
20260510035011 69 40 0.9 1.7 0.00 0.01 0.01 52 1011.1
20260510034510 69 5 0.0 0.0 0.00 0.01 0.01 53 1011.1
20260510034006 69 19 0.9 0.9 0.00 0.01 0.01 52 1010.8
20260510033503 69 0 0.0 0.0 0.00 0.01 0.01 53 1011.1
20260510033000 69 11 0.0 0.0 0.00 0.01 0.01 53 1010.7
20260510032456 69 11 0.9 0.9 0.00 0.01 0.01 52 1011.1
20260510031951 69 23 0.0 0.9 0.00 0.01 0.01 53 1011.2
20260510031447 70 3 0.0 0.9 0.00 0.01 0.01 53 1010.9
20260510030943 70 355 0.9 0.9 0.00 0.01 0.01 53 1010.9
20260510030438 70 16 0.9 0.9 0.00 0.01 0.01 51 1010.6
20260510025936 70 7 0.0 0.0 0.00 0.01 0.01 51 1011.1
20260510025433 71 11 0.0 0.0 0.00 0.01 0.01 51 1011.2
20260510024931 71 322 0.9 0.9 0.00 0.01 0.01 49 1011.0
20260510024427 71 346 0.9 0.9 0.00 0.01 0.01 49 1010.7
20260510023923 71 343 0.0 0.9 0.00 0.01 0.01 50 1010.6
20260510023419 71 316 0.9 1.7 0.00 0.01 0.01 49 1010.2
20260510022917 71 11 0.0 0.9 0.00 0.01 0.01 50 1009.9
20260510022415 71 3 0.9 0.9 0.00 0.01 0.01 49 1009.9
20260510021915 71 5 0.0 0.0 0.00 0.01 0.01 49 1009.8
20260510021413 71 2 0.0 0.9 0.00 0.01 0.01 48 1009.9
20260510020909 71 349 0.9 0.9 0.00 0.01 0.01 48 1009.6
20260510020404 71 6 0.9 1.7 0.00 0.01 0.01 48 1009.6
20260510015900 71 345 1.7 2.6 0.00 0.01 0.01 48 1009.4
20260510015356 71 335 1.7 1.7 0.00 0.01 0.01 48 1009.4
20260510014851 72 1 0.0 0.0 0.00 0.01 0.01 48 1009.4
20260510014349 72 6 0.0 0.0 0.00 0.01 0.01 48 1009.2
20260510013845 72 351 2.6 2.6 0.00 0.01 0.01 47 1009.1
20260510013341 72 11 2.6 4.3 0.00 0.01 0.01 47 1009.2
20260510012836 72 1 2.6 2.6 0.00 0.01 0.01 47 1009.2
20260510012335 73 11 1.7 1.7 0.00 0.01 0.01 46 1008.9
20260510011831 73 339 2.6 4.3 0.00 0.01 0.01 45 1008.8
20260510011326 73 332 2.6 2.6 0.00 0.01 0.01 46 1008.8
20260510010823 73 350 1.7 1.7 0.00 0.01 0.01 47 1008.9
20260510010320 73 11 0.9 0.9 0.00 0.01 0.01 47 1008.7
20260510005817 73 341 2.6 2.6 0.00 0.01 0.01 46 1008.7
20260510005313 74 339 1.7 1.7 0.00 0.01 0.01 46 1008.5
20260510004811 74 303 1.7 2.6 0.00 0.01 0.01 46 1008.4
20260510004308 74 341 2.6 2.6 0.00 0.01 0.01 45 1008.4
20260510003806 74 338 0.9 1.7 0.00 0.01 0.01 45 1008.3
20260510003303 75 336 1.7 2.6 0.00 0.01 0.01 46 1008.2
20260510002801 75 355 1.7 1.7 0.00 0.01 0.01 45 1008.0
20260510002259 75 316 2.6 2.6 0.00 0.01 0.01 44 1007.9
20260510001755 76 316 4.3 6.1 0.00 0.01 0.01 44 1007.9
20260510001253 75 1 1.7 1.7 0.00 0.01 0.01 44 1007.8
20260510000749 75 4 1.7 1.7 0.00 0.01 0.01 43 1007.5
20260510000248 76 27 2.6 2.6 0.00 0.01 0.01 43 1007.8
20260509235744 76 344 0.9 0.9 0.00 0.01 0.01 43 1007.8
20260509235240 76 317 1.7 2.6 0.00 0.01 0.01 42 1007.6
20260509234736 77 2 1.7 1.7 0.00 0.01 0.01 41 1007.5
20260509234233 77 322 3.5 5.2 0.00 0.01 0.01 40 1007.7
20260509233731 77 5 2.6 2.6 0.00 0.01 0.01 40 1007.4
20260509233229 77 8 1.7 1.7 0.00 0.01 0.01 39 1007.2
20260509232724 78 351 5.2 7.8 0.00 0.01 0.01 38 1007.2
20260509232222 78 321 4.3 5.2 0.00 0.01 0.01 38 1007.4
20260509231718 79 330 3.5 5.2 0.00 0.01 0.01 36 1007.3
20260509231215 80 318 2.6 2.6 0.00 0.01 0.01 35 1007.2
20260509230712 80 135 0.9 0.9 0.00 0.01 0.01 34 1007.1
20260509230203 81 292 0.9 0.9 0.00 0.01 0.01 33 1006.9
20260509225659 81 228 0.9 1.7 0.00 0.01 0.01 33 1006.8
20260509225154 81 11 0.0 0.9 0.00 0.01 0.01 33 1006.8
20260509224651 81 54 0.9 0.9 0.00 0.01 0.01 32 1006.9
20260509224148 82 120 0.9 1.7 0.00 0.01 0.01 31 1006.6
20260509223645 82 168 0.9 0.9 0.00 0.01 0.01 33 1006.5
20260509223142 82 355 0.0 0.9 0.00 0.01 0.01 32 1006.5
20260509222639 82 357 0.9 0.9 0.00 0.01 0.01 32 1006.5
20260509222134 82 282 1.7 1.7 0.00 0.01 0.01 32 1006.4
20260509221630 82 342 0.9 0.9 0.00 0.01 0.01 31 1006.5
20260509221126 82 33 0.0 0.9 0.00 0.01 0.01 30 1006.3
20260509220622 82 30 0.0 0.0 0.00 0.01 0.01 31 1006.4
20260509220119 82 254 0.9 1.7 0.00 0.01 0.01 31 1006.5
20260509215615 83 202 0.9 0.9 0.00 0.01 0.01 31 1006.4
20260509215112 83 236 2.6 4.3 0.00 0.01 0.01 32 1006.3
20260509214609 83 338 0.9 1.7 0.00 0.01 0.01 32 1006.3